Simultaneous Nadir Overpasses (SNOs) Predictions

Prediction of SNOs between GOES-17 and TERRA Satellite Orbit:

Table of predicted SNOs for the next 14.0 days since TLE Epoch: 10/31/2025
Index Date Time (GOES-17) GOES-17 Lat,Lon TERRA Lat,Lon Distance(km) Time Diff (sec)
1 11/02/2025 14:52:48 0.33, -89.54 -0.42, -85.96 406.29 80
2 11/03/2025 03:14:59 -0.33, -89.47 -0.57, -90.71 140.62 80
3 11/05/2025 02:52:50 -0.33, -89.48 0.39, -86.02 393.16 80
4 11/05/2025 15:12:13 0.33, -89.55 0.55, -90.75 135.60 80
5 11/07/2025 14:55:23 0.34, -89.56 -0.38, -86.05 398.41 80
6 11/08/2025 03:14:54 -0.34, -89.49 -0.61, -90.80 148.44 80
7 11/10/2025 02:52:44 -0.35, -89.50 0.34, -86.10 385.93 80
8 11/10/2025 15:12:07 0.35, -89.57 0.64, -90.82 142.75 80
9 11/12/2025 14:55:17 0.36, -89.59 -0.35, -86.12 392.91 80
10 11/13/2025 03:13:58 -0.35, -89.53 -0.64, -90.88 153.34 30
